Regional Weather Roundup
Issued by NWS

Home | Current Version | Previous Version | Graphics & Text | Print | Product List | Glossary Off
Versions: 1 2 3 4 5 6 7 8 9 10 11 12 13 14 15 16 17 18 19 20 21 22 23 24 25 26 27 28 29 30 31 32 33 34 35 36 37 38 39 40 41 42 43 44 45 46 47 48 49 50

725
ASUS43 KDMX 202006
RWRIA

WEATHER ROUNDUP FOR IOWA
NATIONAL WEATHER SERVICE DES MOINES IA
300 PM CDT FRI APR 20 2018

NOTE: "FAIR" INDICATES FEW OR NO CLOUDS BELOW 12,000 FEET WITH NO
SIGNIFICANT WEATHER AND/OR OBSTRUCTIONS TO VISIBILITY.

* - THESE STATIONS ARE NOT NWS STATIONS...THUS NOT UNDER NWS
QUALITY CONTROL.  THEY ALSO DO NOT REPORT WEATHER SUCH
AS PRECIPITATION OR FOG.

IAZ001>003-012>014-020>022-031>034-043>046-202100-
   NORTHWEST IOWA

CITY           SKY/WX    TMP DP  RH WIND       PRES   REMARKS
CARROLL *      CLOUDY    57  32  38 E14       30.37F
CHEROKEE *     CLOUDY    46  38  76 E14       30.38F
DENISON *      PTSUNNY   57  30  35 SE14      30.36F
LE MARS *      CLOUDY    55  34  44 SE13G20   30.35F
ORANGE CITY *  CLOUDY    46  39  76 E8        30.37F
SHELDON *      CLOUDY    48  39  71 SE9       30.37F
SIOUX CITY     CLOUDY    58  32  37 SE14      30.34F
SPENCER        CLOUDY    41  31  67 E8        30.41F
STORM LAKE *   MOSUNNY   46  41  81 NE9       30.39F
$$

IAZ055>058-069>071-079>083-090>094-202100-
   SOUTHWEST IOWA

CITY           SKY/WX    TMP DP  RH WIND       PRES   REMARKS
ATLANTIC *     CLOUDY    59  27  29 E10G21    30.34F
AUDUBON *      CLOUDY    61  25  25 SE13      30.36F
CLARINDA *     MOSUNNY   61  27  27 S13G18    30.35F
COUNCIL BLFS * PTSUNNY   61  28  29 SE13G20   30.32F
CRESTON *      MOSUNNY   59  27  29 SE12G20   30.37F
HARLAN  *      CLOUDY    59  27  29 SE14      30.37F
LAMONI         MOSUNNY   59  28  30 E8G17     30.37F
RED OAK *      MOSUNNY   63  28  27 SE16G23   30.33F
SHENANDOAH *   CLOUDY    63  28  27 SE14G23   30.32F
$$

IAZ047>049-059>061-072>074-084-202100-
   CENTRAL IOWA

CITY           SKY/WX    TMP DP  RH WIND       PRES   REMARKS
AMES           CLOUDY    56  29  35 SE8       30.41F
ANKENY *       CLOUDY    57  28  33 E10       30.41F
BOONE *        PTSUNNY   55  30  38 SE10      30.39F
CHARITON *     CLOUDY    59  28  31 E12       30.39F
DES MOINES     CLOUDY    58  27  30 E15G22    30.40F
GRINNELL*      MOSUNNY   57  26  30 SE10      30.43F
KNOXVILLE *    CLOUDY    57  25  28 S8G15     30.39F
MARSHALLTOWN   PTSUNNY   56  29  35 SE8       30.42F
NEWTON *       CLOUDY    57  25  28 SE6G15    30.41F
PELLA *        CLOUDY    59  22  24 SE8       30.43F
PERRY *        FAIR      55  22  27 E10       30.39F
$$

IAZ004>006-015-016-023>025-035-036-202100-
   NORTH CENTRAL IOWA

CITY           SKY/WX    TMP DP  RH WIND       PRES   REMARKS
ALGONA *       CLOUDY    41  30  65 E9        30.43F
CLARION *      CLOUDY    48  39  71 NE13      30.42F
ESTHERVILLE    CLOUDY    36  30  79 E7        30.42F WCI  30
FORT DODGE *   CLOUDY    54  35  48 E8        30.40F
MASON CITY     PTSUNNY   43  33  68 N3        30.46F
FOREST CITY *  FAIR      45  28  53 E6        30.45F
WEBSTER CITY * PTSUNNY   54  30  40 CALM      30.39F
IOWA FALLS *   FAIR      56  30  37 SE6       30.43F
$$

IAZ007>011-017>019-026>030-037>042-050>054-066-202100-
   NORTHEAST IOWA

CITY           SKY/WX    TMP DP  RH WIND       PRES   REMARKS
CEDAR RAPIDS   FAIR      59  24  26 VRB6      30.43F
CHARLES CITY * FAIR      48  30  49 NE5       30.46F
CLINTON *      FAIR      58  21  24 S8        30.46F
DECORAH *      FAIR      48  27  43 CALM      30.46F
DUBUQUE        FAIR      55  25  31 W5        30.45F
MONTICELLO *   FAIR      59  25  27 S9        30.44F
OELWEIN *      FAIR      54  30  40 NW6       30.45F
WATERLOO       FAIR      55  30  38 S5        30.44F
$$

IAZ064-065-067-068-078-202100-
   EAST CENTRAL IOWA

CITY           SKY/WX    TMP DP  RH WIND       PRES   REMARKS
DAVENPORT      FAIR      59  18  20 VRB5      30.46F
IOWA CITY      FAIR      60  24  25 S9        30.45F
MT. PLEASANT * CLOUDY    61  19  20 S6        30.44S
MUSCATINE *    FAIR      61  19  20 S9        30.44F
QUAD CITIES    FAIR      61  14  16 SE8       30.44F
$$

IAZ062-063-075>077-085>089-095>099-202100-
   SOUTHEAST IOWA

CITY           SKY/WX    TMP DP  RH WIND       PRES   REMARKS
BURLINGTON     CLOUDY    60  19  20 SE10      30.43F
FAIRFIELD *    CLOUDY    59  23  25 SE14      30.42F
FORT MADISON * MOSUNNY   59  19  21 CALM      30.44F
KEOKUK *       CLOUDY    59  19  21 SE9G16    30.42F
OSKALOOSA *    FAIR      59  24  25 SE10G17   30.42F
CENTERVILLE *    N/A     57  25  28 E8        30.41F
OTTUMWA        CLOUDY    59  22  24 S9G17     30.41F
WASHINGTON *   CLOUDY    61  19  20 VRB6G14   30.44F
$$

ABBREVIATIONS USED IN REMARKS
   TC - TEMPERATURES IN CELSIUS
  WCI - WIND CHILL INDEX
   HX - HEAT INDEX
  VSB - VISIBILITY
$$





USA.gov is the U.S. government's official web portal to all federal, state and local government web resources and services.